| time (UTC) | temp F | wind direction | speed MPH | gust MPH | rain 1hr in | rain 24hr in | rain mn in | humidity % | barometer mb |
| 20260503231616 | 88 | 206 | 7.0 | 21.0 | 0.00 | 0.00 | 0.00 | 11 | 1005.2 |
| 20260503231302 | 88 | 183 | 8.0 | 21.0 | 0.00 | 0.00 | 0.00 | 12 | 1005.1 |
| 20260503230942 | 88 | 217 | 10.0 | 21.0 | 0.00 | 0.00 | 0.00 | 11 | 1005.1 |
| 20260503230624 | 88 | 170 | 9.0 | 21.0 | 0.00 | 0.00 | 0.00 | 11 | 1005.2 |
| 20260503230301 | 89 | 188 | 7.0 | 21.0 | 0.00 | 0.00 | 0.00 | 11 | 1005.2 |
| 20260503225939 | 89 | 219 | 6.0 | 16.0 | 0.00 | 0.00 | 0.00 | 11 | 1005.3 |
| 20260503225620 | 89 | 207 | 6.0 | 16.0 | 0.00 | 0.00 | 0.00 | 12 | 1005.3 |
| 20260503225304 | 89 | 128 | 7.0 | 22.0 | 0.00 | 0.00 | 0.00 | 12 | 1005.3 |
| 20260503224942 | 89 | 176 | 9.0 | 22.0 | 0.00 | 0.00 | 0.00 | 13 | 1005.3 |
| 20260503224617 | 88 | 130 | 11.0 | 22.0 | 0.00 | 0.00 | 0.00 | 13 | 1005.4 |
| 20260503223959 | 88 | 121 | 10.0 | 22.0 | 0.00 | 0.00 | 0.00 | 13 | 1005.6 |
| 20260503223638 | 88 | 119 | 9.0 | 22.0 | 0.00 | 0.00 | 0.00 | 13 | 1005.6 |
| 20260503223319 | 88 | 163 | 8.0 | 22.0 | 0.00 | 0.00 | 0.00 | 13 | 1005.8 |
| 20260503222954 | 88 | 165 | 7.0 | 18.0 | 0.00 | 0.00 | 0.00 | 13 | 1005.9 |
| 20260503222631 | 88 | 184 | 7.0 | 13.0 | 0.00 | 0.00 | 0.00 | 12 | 1005.9 |
| 20260503222314 | 89 | 142 | 7.0 | 13.0 | 0.00 | 0.00 | 0.00 | 13 | 1006.0 |
| 20260503221956 | 89 | 173 | 8.0 | 19.0 | 0.00 | 0.00 | 0.00 | 14 | 1006.1 |
| 20260503221635 | 88 | 159 | 10.0 | 19.0 | 0.00 | 0.00 | 0.00 | 13 | 1006.1 |
| 20260503221009 | 89 | 189 | 10.0 | 19.0 | 0.00 | 0.00 | 0.00 | 13 | 1006.4 |
| 20260503220650 | 89 | 155 | 9.0 | 19.0 | 0.00 | 0.00 | 0.00 | 13 | 1006.5 |
| 20260503220325 | 89 | 173 | 10.0 | 19.0 | 0.00 | 0.00 | 0.00 | 13 | 1006.5 |
| 20260503220005 | 88 | 215 | 8.0 | 16.0 | 0.00 | 0.00 | 0.00 | 13 | 1006.6 |
| 20260503215345 | 89 | 178 | 8.0 | 20.0 | 0.00 | 0.00 | 0.00 | 12 | 1006.7 |
| 20260503215019 | 89 | 263 | 9.0 | 20.0 | 0.00 | 0.00 | 0.00 | 12 | 1006.8 |
| 20260503214705 | 90 | 197 | 8.0 | 20.0 | 0.00 | 0.00 | 0.00 | 12 | 1006.7 |
| 20260503214342 | 90 | 206 | 7.0 | 20.0 | 0.00 | 0.00 | 0.00 | 12 | 1006.8 |
| 20260503214027 | 90 | 239 | 7.0 | 20.0 | 0.00 | 0.00 | 0.00 | 12 | 1007.0 |
| 20260503213710 | 90 | 184 | 6.0 | 19.0 | 0.00 | 0.00 | 0.00 | 12 | 1006.9 |
| 20260503213348 | 90 | 205 | 8.0 | 19.0 | 0.00 | 0.00 | 0.00 | 12 | 1007.0 |
| 20260503212725 | 90 | 157 | 5.0 | 19.0 | 0.00 | 0.00 | 0.00 | 12 | 1007.3 |
| 20260503212406 | 90 | 160 | 3.0 | 12.0 | 0.00 | 0.00 | 0.00 | 12 | 1007.4 |
| 20260503212041 | 88 | 170 | 4.0 | 12.0 | 0.00 | 0.00 | 0.00 | 13 | 1007.5 |
| 20260503211726 | 87 | 155 | 4.0 | 12.0 | 0.00 | 0.00 | 0.00 | 12 | 1007.5 |
| 20260503211412 | 87 | 184 | 4.0 | 12.0 | 0.00 | 0.00 | 0.00 | 12 | 1007.6 |
| 20260503211051 | 87 | 208 | 3.0 | 12.0 | 0.00 | 0.00 | 0.00 | 13 | 1007.4 |
| 20260503210726 | 87 | 194 | 1.0 | 8.0 | 0.00 | 0.00 | 0.00 | 12 | 1007.6 |
| 20260503210400 | 87 | 229 | 0.0 | 4.0 | 0.00 | 0.00 | 0.00 | 12 | 1007.6 |
| 20260503205740 | 87 | 194 | 1.0 | 11.0 | 0.00 | 0.00 | 0.00 | 13 | 1007.6 |
| 20260503205418 | 87 | 184 | 2.0 | 11.0 | 0.00 | 0.00 | 0.00 | 12 | 1007.8 |
| 20260503205059 | 87 | 53 | 4.0 | 11.0 | 0.00 | 0.00 | 0.00 | 11 | 1007.8 |
| 20260503204736 | 87 | 78 | 5.0 | 11.0 | 0.00 | 0.00 | 0.00 | 12 | 1008.0 |
| 20260503204412 | 88 | 123 | 4.0 | 11.0 | 0.00 | 0.00 | 0.00 | 12 | 1008.1 |
| 20260503204047 | 88 | 165 | 3.0 | 11.0 | 0.00 | 0.00 | 0.00 | 11 | 1008.2 |
| 20260503203728 | 88 | 84 | 3.0 | 8.0 | 0.00 | 0.00 | 0.00 | 12 | 1008.2 |
| 20260503203104 | 89 | 44 | 3.0 | 12.0 | 0.00 | 0.00 | 0.00 | 11 | 1008.2 |
| 20260503202439 | 89 | 78 | 4.0 | 13.0 | 0.00 | 0.00 | 0.00 | 11 | 1008.4 |
| 20260503202117 | 90 | 157 | 5.0 | 13.0 | 0.00 | 0.00 | 0.00 | 11 | 1008.6 |
| 20260503201753 | 91 | 104 | 4.0 | 13.0 | 0.00 | 0.00 | 0.00 | 10 | 1008.6 |
| 20260503201127 | 91 | 57 | 5.0 | 15.0 | 0.00 | 0.00 | 0.00 | 14 | 1008.7 |
| 20260503200803 | 91 | 0 | 6.0 | 15.0 | 0.00 | 0.00 | 0.00 | 9 | 1008.7 |
| 20260503200442 | 91 | 113 | 6.0 | 16.0 | 0.00 | 0.00 | 0.00 | 11 | 1008.9 |
| 20260503200128 | 90 | 108 | 5.0 | 16.0 | 0.00 | 0.00 | 0.00 | 11 | 1008.8 |
| 20260503195810 | 89 | 78 | 4.0 | 16.0 | 0.00 | 0.00 | 0.00 | 12 | 1009.1 |
| 20260503194250 | 89 | 78 | 2.0 | 9.0 | 0.00 | 0.00 | 0.00 | 11 | 1009.5 |
| 20260503193935 | 87 | 30 | 2.0 | 9.0 | 0.00 | 0.00 | 0.00 | 11 | 1009.6 |
| 20260503193612 | 88 | 234 | 3.0 | 11.0 | 0.00 | 0.00 | 0.00 | 9 | 1009.6 |
| 20260503193247 | 89 | 67 | 3.0 | 11.0 | 0.00 | 0.00 | 0.00 | 14 | 1009.9 |
| 20260503192930 | 88 | 67 | 2.0 | 11.0 | 0.00 | 0.00 | 0.00 | 11 | 1009.9 |
| 20260503192611 | 87 | 198 | 3.0 | 11.0 | 0.00 | 0.00 | 0.00 | 12 | 1010.0 |
| 20260503192252 | 87 | 80 | 4.0 | 11.0 | 0.00 | 0.00 | 0.00 | 10 | 1010.0 |
| 20260503191631 | 87 | 146 | 3.0 | 9.0 | 0.00 | 0.00 | 0.00 | 12 | 1010.2 |
| 20260503191304 | 87 | 237 | 3.0 | 9.0 | 0.00 | 0.00 | 0.00 | 10 | 1010.2 |
| 20260503190941 | 87 | 156 | 2.0 | 9.0 | 0.00 | 0.00 | 0.00 | 9 | 1010.3 |
| 20260503190614 | 88 | 130 | 2.0 | 9.0 | 0.00 | 0.00 | 0.00 | 9 | 1010.4 |
| 20260503190258 | 88 | 144 | 2.0 | 7.0 | 0.00 | 0.00 | 0.00 | 11 | 1010.5 |
| 20260503185632 | 88 | 41 | 2.0 | 7.0 | 0.00 | 0.00 | 0.00 | 10 | 1010.6 |
| 20260503185309 | 87 | 32 | 2.0 | 8.0 | 0.00 | 0.00 | 0.00 | 14 | 1010.7 |
| 20260503184954 | 86 | 131 | 2.0 | 8.0 | 0.00 | 0.00 | 0.00 | 10 | 1010.9 |
| 20260503184633 | 85 | 101 | 2.0 | 8.0 | 0.00 | 0.00 | 0.00 | 11 | 1010.9 |
| 20260503184308 | 85 | 157 | 2.0 | 8.0 | 0.00 | 0.00 | 0.00 | 10 | 1011.0 |
| 20260503183347 | 87 | 163 | 2.0 | 7.0 | 0.00 | 0.00 | 0.00 | 10 | 1011.1 |
| 20260503183022 | 86 | 119 | 1.0 | 7.0 | 0.00 | 0.00 | 0.00 | 14 | 1011.2 |
| 20260503182656 | 85 | 117 | 2.0 | 8.0 | 0.00 | 0.00 | 0.00 | 9 | 1011.2 |
| 20260503182337 | 85 | 185 | 2.0 | 8.0 | 0.00 | 0.00 | 0.00 | 13 | 1011.3 |
| 20260503180811 | 86 | 63 | 3.0 | 8.0 | 0.00 | 0.00 | 0.00 | 11 | 1011.7 |
| 20260503180456 | 85 | 117 | 3.0 | 9.0 | 0.00 | 0.00 | 0.00 | 11 | 1011.6 |
| 20260503180133 | 85 | 30 | 3.0 | 9.0 | 0.00 | 0.00 | 0.00 | 11 | 1011.6 |
| 20260503175815 | 84 | 132 | 3.0 | 9.0 | 0.00 | 0.00 | 0.00 | 10 | 1011.7 |
| 20260503175459 | 84 | 90 | 3.0 | 9.0 | 0.00 | 0.00 | 0.00 | 14 | 1011.7 |
| 20260503175145 | 83 | 81 | 3.0 | 9.0 | 0.00 | 0.00 | 0.00 | 11 | 1011.8 |
| 20260503174820 | 83 | 110 | 3.0 | 9.0 | 0.00 | 0.00 | 0.00 | 12 | 1011.9 |
| 20260503174152 | 84 | 98 | 3.0 | 8.0 | 0.00 | 0.00 | 0.00 | 12 | 1012.0 |
| 20260503173535 | 83 | 106 | 3.0 | 8.0 | 0.00 | 0.00 | 0.00 | 11 | 1012.1 |
| 20260503173220 | 82 | 145 | 3.0 | 8.0 | 0.00 | 0.00 | 0.00 | 13 | 1012.2 |
| 20260503172601 | 82 | 136 | 3.0 | 8.0 | 0.00 | 0.00 | 0.00 | 11 | 1012.2 |
| 20260503172244 | 82 | 92 | 4.0 | 8.0 | 0.00 | 0.00 | 0.00 | 11 | 1012.3 |
| 20260503171926 | 82 | 129 | 3.0 | 8.0 | 0.00 | 0.00 | 0.00 | 13 | 1012.3 |
| 20260503171602 | 82 | 96 | 3.0 | 8.0 | 0.00 | 0.00 | 0.00 | 13 | 1012.3 |
| 20260503171245 | 82 | 92 | 2.0 | 8.0 | 0.00 | 0.00 | 0.00 | 11 | 1012.3 |
| 20260503170930 | 81 | 35 | 2.0 | 6.0 | 0.00 | 0.00 | 0.00 | 10 | 1012.3 |
| 20260503170607 | 81 | 110 | 2.0 | 6.0 | 0.00 | 0.00 | 0.00 | 12 | 1012.3 |
| 20260503170242 | 81 | 36 | 2.0 | 8.0 | 0.00 | 0.00 | 0.00 | 11 | 1012.3 |
| 20260503150958 | 71 | 132 | 0.0 | 3.0 | 0.00 | 0.00 | 0.00 | 15 | 1013.0 |
| 20260503131211 | 56 | 0 | 2.0 | 5.0 | 0.00 | 0.00 | 0.00 | 25 | 1012.3 |
| 20260503130844 | 56 | 0 | 2.0 | 5.0 | 0.00 | 0.00 | 0.00 | 25 | 1012.2 |
| 20260503130520 | 56 | 296 | 2.0 | 5.0 | 0.00 | 0.00 | 0.00 | 25 | 1012.1 |
| 20260503110744 | 59 | 0 | 1.0 | 3.0 | 0.00 | 0.00 | 0.00 | 20 | 1012.0 |
| 20260503110424 | 59 | 0 | 1.0 | 3.0 | 0.00 | 0.00 | 0.00 | 21 | 1011.9 |
| 20260503110105 | 59 | 0 | 1.0 | 3.0 | 0.00 | 0.00 | 0.00 | 21 | 1011.9 |
| 20260503100108 | 59 | 0 | 2.0 | 4.0 | 0.00 | 0.00 | 0.00 | 21 | 1011.9 |
| 20260503081626 | 61 | 0 | 0.0 | 1.0 | 0.00 | 0.00 | 0.00 | 19 | 1012.6 |
| 20260503081311 | 61 | 0 | 0.0 | 1.0 | 0.00 | 0.00 | 0.00 | 19 | 1012.6 |
| 20260503080651 | 61 | 0 | 0.0 | 0.0 | 0.00 | 0.00 | 0.00 | 19 | 1012.7 |
| 20260503080335 | 61 | 0 | 0.0 | 0.0 | 0.00 | 0.00 | 0.00 | 19 | 1012.7 |
| 20260503072722 | 63 | 0 | 1.0 | 3.0 | 0.00 | 0.00 | 0.00 | 19 | 1012.8 |
| 20260503072357 | 63 | 0 | 1.0 | 3.0 | 0.00 | 0.00 | 0.00 | 20 | 1012.8 |
| 20260503072033 | 63 | 0 | 1.0 | 2.0 | 0.00 | 0.00 | 0.00 | 19 | 1012.8 |
| 20260503071716 | 63 | 0 | 1.0 | 2.0 | 0.00 | 0.00 | 0.00 | 19 | 1012.8 |
| 20260503071355 | 63 | 0 | 1.0 | 2.0 | 0.00 | 0.00 | 0.00 | 19 | 1012.8 |
| 20260503071030 | 64 | 0 | 1.0 | 2.0 | 0.00 | 0.00 | 0.00 | 20 | 1012.8 |
| 20260503070708 | 64 | 0 | 1.0 | 2.0 | 0.00 | 0.00 | 0.00 | 19 | 1012.9 |
| 20260503070350 | 64 | 0 | 0.0 | 2.0 | 0.00 | 0.00 | 0.00 | 18 | 1012.8 |
| 20260503060216 | 66 | 291 | 2.0 | 5.0 | 0.00 | 0.00 | 0.00 | 16 | 1012.7 |
| 20260503054846 | 66 | 289 | 2.0 | 6.0 | 0.00 | 0.00 | 0.00 | 15 | 1012.7 |
| 20260503054525 | 66 | 273 | 2.0 | 6.0 | 0.00 | 0.00 | 0.00 | 16 | 1012.7 |
| 20260503054208 | 66 | 273 | 2.0 | 6.0 | 0.00 | 0.00 | 0.00 | 16 | 1012.7 |
| 20260503053843 | 66 | 277 | 2.0 | 5.0 | 0.00 | 0.00 | 0.00 | 16 | 1012.7 |
| 20260503053529 | 67 | 271 | 2.0 | 5.0 | 0.00 | 0.00 | 0.00 | 16 | 1012.7 |
| 20260503053204 | 67 | 270 | 2.0 | 5.0 | 0.00 | 0.00 | 0.00 | 16 | 1012.7 |
| 20260503052839 | 67 | 265 | 2.0 | 5.0 | 0.00 | 0.00 | 0.00 | 16 | 1012.7 |
| 20260503052518 | 67 | 284 | 2.0 | 5.0 | 0.00 | 0.00 | 0.00 | 16 | 1012.7 |
| 20260503052200 | 67 | 275 | 2.0 | 5.0 | 0.00 | 0.00 | 0.00 | 16 | 1012.7 |
| 20260503051841 | 67 | 273 | 2.0 | 5.0 | 0.00 | 0.00 | 0.00 | 16 | 1012.7 |
| 20260503051523 | 67 | 291 | 2.0 | 5.0 | 0.00 | 0.00 | 0.00 | 16 | 1012.8 |
| 20260503051205 | 67 | 279 | 2.0 | 5.0 | 0.00 | 0.00 | 0.00 | 16 | 1012.7 |
| 20260503050838 | 67 | 288 | 2.0 | 3.0 | 0.00 | 0.00 | 0.00 | 16 | 1012.7 |
| 20260503050517 | 67 | 282 | 2.0 | 3.0 | 0.00 | 0.00 | 0.00 | 16 | 1012.6 |
| 20260503050150 | 68 | 267 | 1.0 | 3.0 | 0.00 | 0.00 | 0.00 | 16 | 1012.6 |
| 20260503045225 | 68 | 287 | 1.0 | 3.0 | 0.00 | 0.00 | 0.00 | 16 | 1012.6 |
| 20260503044909 | 68 | 279 | 1.0 | 3.0 | 0.00 | 0.00 | 0.00 | 16 | 1012.6 |
| 20260503044545 | 68 | 279 | 1.0 | 5.0 | 0.00 | 0.00 | 0.00 | 16 | 1012.5 |
| 20260503044229 | 68 | 288 | 2.0 | 5.0 | 0.00 | 0.00 | 0.00 | 16 | 1012.6 |
| 20260503043911 | 68 | 273 | 2.0 | 5.0 | 0.00 | 0.00 | 0.00 | 16 | 1012.4 |
| 20260503043555 | 68 | 283 | 2.0 | 5.0 | 0.00 | 0.00 | 0.00 | 16 | 1012.5 |
| 20260503043230 | 69 | 280 | 2.0 | 5.0 | 0.00 | 0.00 | 0.00 | 16 | 1012.5 |
| 20260503042907 | 69 | 279 | 2.0 | 5.0 | 0.00 | 0.00 | 0.00 | 16 | 1012.5 |
| 20260503042550 | 69 | 286 | 2.0 | 4.0 | 0.00 | 0.00 | 0.00 | 16 | 1012.4 |
| 20260503042225 | 69 | 287 | 2.0 | 4.0 | 0.00 | 0.00 | 0.00 | 16 | 1012.4 |
| 20260503041605 | 69 | 0 | 3.0 | 4.0 | 0.00 | 0.00 | 0.00 | 15 | 1012.3 |
| 20260503041242 | 70 | 0 | 2.0 | 4.0 | 0.00 | 0.00 | 0.00 | 15 | 1012.3 |
| 20260503040925 | 70 | 0 | 2.0 | 4.0 | 0.00 | 0.00 | 0.00 | 15 | 1012.3 |
| 20260503040609 | 70 | 0 | 2.0 | 3.0 | 0.00 | 0.00 | 0.00 | 14 | 1012.1 |
| 20260503040253 | 70 | 0 | 2.0 | 3.0 | 0.00 | 0.00 | 0.00 | 14 | 1012.2 |
| 20260503035335 | 71 | 0 | 2.0 | 2.0 | 0.00 | 0.00 | 0.00 | 14 | 1012.1 |
| 20260503035016 | 71 | 0 | 1.0 | 2.0 | 0.00 | 0.00 | 0.00 | 14 | 1012.1 |
| 20260503034657 | 71 | 0 | 1.0 | 2.0 | 0.00 | 0.00 | 0.00 | 13 | 1012.1 |
| 20260503034330 | 72 | 0 | 1.0 | 2.0 | 0.00 | 0.00 | 0.00 | 12 | 1012.0 |
| 20260503034011 | 72 | 0 | 0.0 | 2.0 | 0.00 | 0.00 | 0.00 | 12 | 1012.0 |
| 20260503033650 | 72 | 0 | 0.0 | 1.0 | 0.00 | 0.00 | 0.00 | 12 | 1011.9 |
| 20260503033326 | 72 | 0 | 0.0 | 1.0 | 0.00 | 0.00 | 0.00 | 12 | 1011.9 |
| 20260503032705 | 73 | 0 | 0.0 | 1.0 | 0.00 | 0.00 | 0.00 | 12 | 1011.8 |
| 20260503032340 | 73 | 0 | 0.0 | 1.0 | 0.00 | 0.00 | 0.00 | 11 | 1011.7 |
| 20260503032025 | 73 | 0 | 0.0 | 1.0 | 0.00 | 0.00 | 0.00 | 11 | 1011.8 |
| 20260503031408 | 74 | 0 | 0.0 | 1.0 | 0.00 | 0.00 | 0.00 | 12 | 1011.8 |
| 20260503031041 | 74 | 0 | 0.0 | 1.0 | 0.00 | 0.00 | 0.00 | 12 | 1011.8 |
| 20260503030422 | 75 | 0 | 0.0 | 1.0 | 0.00 | 0.00 | 0.00 | 11 | 1011.7 |
| 20260503030057 | 75 | 0 | 0.0 | 0.0 | 0.00 | 0.00 | 0.00 | 10 | 1011.6 |
| 20260503025734 | 75 | 0 | 0.0 | 1.0 | 0.00 | 0.00 | 0.00 | 10 | 1011.7 |
| 20260503025417 | 75 | 0 | 0.0 | 1.0 | 0.00 | 0.00 | 0.00 | 9 | 1011.5 |
| 20260503025102 | 76 | 0 | 0.0 | 1.0 | 0.00 | 0.00 | 0.00 | 9 | 1011.5 |
| 20260503024445 | 76 | 0 | 0.0 | 1.0 | 0.00 | 0.00 | 0.00 | 9 | 1011.4 |
| 20260503024128 | 76 | 0 | 0.0 | 1.0 | 0.00 | 0.00 | 0.00 | 9 | 1011.4 |
| 20260503023813 | 76 | 0 | 0.0 | 0.0 | 0.00 | 0.00 | 0.00 | 8 | 1011.3 |
| 20260503023450 | 76 | 0 | 0.0 | 2.0 | 0.00 | 0.00 | 0.00 | 8 | 1011.3 |
| 20260503023130 | 77 | 0 | 0.0 | 2.0 | 0.00 | 0.00 | 0.00 | 8 | 1011.3 |
| 20260503022811 | 76 | 0 | 0.0 | 1.0 | 0.00 | 0.00 | 0.00 | 8 | 1011.2 |
| 20260503022447 | 77 | 0 | 0.0 | 0.0 | 0.00 | 0.00 | 0.00 | 8 | 1011.3 |
| 20260503022130 | 77 | 0 | 0.0 | 2.0 | 0.00 | 0.00 | 0.00 | 9 | 1011.2 |
| 20260503021814 | 77 | 0 | 0.0 | 2.0 | 0.00 | 0.00 | 0.00 | 8 | 1011.3 |
| 20260503021449 | 78 | 11 | 0.0 | 1.0 | 0.00 | 0.00 | 0.00 | 9 | 1011.3 |
| 20260503021131 | 78 | 11 | 0.0 | 1.0 | 0.00 | 0.00 | 0.00 | 9 | 1011.4 |
| 20260503020806 | 79 | 11 | 0.0 | 0.0 | 0.00 | 0.00 | 0.00 | 9 | 1011.4 |
| 20260503015846 | 79 | 75 | 0.0 | 0.0 | 0.00 | 0.00 | 0.00 | 8 | 1011.4 |
| 20260503015527 | 80 | 75 | 0.0 | 3.0 | 0.00 | 0.00 | 0.00 | 7 | 1011.4 |
| 20260503015203 | 80 | 59 | 0.0 | 3.0 | 0.00 | 0.00 | 0.00 | 7 | 1011.4 |
| 20260503014847 | 80 | 59 | 0.0 | 3.0 | 0.00 | 0.00 | 0.00 | 8 | 1011.4 |
| 20260503014524 | 81 | 53 | 0.0 | 3.0 | 0.00 | 0.00 | 0.00 | 8 | 1011.4 |
| 20260503014209 | 81 | 41 | 0.0 | 3.0 | 0.00 | 0.00 | 0.00 | 7 | 1011.4 |
| 20260503013549 | 82 | 17 | 0.0 | 2.0 | 0.00 | 0.00 | 0.00 | 7 | 1011.5 |
| 20260503012930 | 82 | 350 | 0.0 | 1.0 | 0.00 | 0.00 | 0.00 | 7 | 1011.6 |
| 20260503012613 | 82 | 350 | 0.0 | 3.0 | 0.00 | 0.00 | 0.00 | 7 | 1011.6 |
| 20260503012255 | 82 | 350 | 0.0 | 3.0 | 0.00 | 0.00 | 0.00 | 7 | 1011.6 |
| 20260503011635 | 82 | 321 | 1.0 | 3.0 | 0.00 | 0.00 | 0.00 | 5 | 1011.6 |
| 20260503011313 | 83 | 38 | 1.0 | 3.0 | 0.00 | 0.00 | 0.00 | 5 | 1011.6 |
| 20260503010651 | 83 | 31 | 1.0 | 3.0 | 0.00 | 0.00 | 0.00 | 6 | 1011.6 |
| 20260503010027 | 83 | 28 | 0.0 | 2.0 | 0.00 | 0.00 | 0.00 | 7 | 1011.7 |
| 20260503005701 | 84 | 49 | 0.0 | 4.0 | 0.00 | 0.00 | 0.00 | 6 | 1011.7 |
| 20260503005340 | 84 | 49 | 1.0 | 4.0 | 0.00 | 0.00 | 0.00 | 7 | 1011.8 |
| 20260503005015 | 84 | 355 | 1.0 | 4.0 | 0.00 | 0.00 | 0.00 | 6 | 1011.8 |
| 20260503004358 | 84 | 346 | 2.0 | 4.0 | 0.00 | 0.00 | 0.00 | 6 | 1011.8 |
| 20260503004034 | 84 | 31 | 1.0 | 4.0 | 0.00 | 0.00 | 0.00 | 6 | 1011.9 |
| 20260503003716 | 84 | 23 | 1.0 | 4.0 | 0.00 | 0.00 | 0.00 | 7 | 1011.9 |
| 20260503003353 | 84 | 59 | 1.0 | 4.0 | 0.00 | 0.00 | 0.00 | 8 | 1012.0 |
| 20260503003028 | 84 | 58 | 1.0 | 4.0 | 0.00 | 0.00 | 0.00 | 9 | 1012.0 |
| 20260503002412 | 84 | 36 | 1.0 | 4.0 | 0.00 | 0.00 | 0.00 | 8 | 1012.0 |
| 20260503002051 | 84 | 336 | 1.0 | 7.0 | 0.00 | 0.00 | 0.00 | 6 | 1012.1 |
| 20260503001732 | 84 | 53 | 2.0 | 7.0 | 0.00 | 0.00 | 0.00 | 6 | 1012.2 |
| 20260503001414 | 84 | 57 | 2.0 | 7.0 | 0.00 | 0.00 | 0.00 | 7 | 1012.2 |
| 20260503001049 | 84 | 132 | 2.0 | 8.0 | 0.00 | 0.00 | 0.00 | 7 | 1012.2 |
| 20260503000731 | 84 | 122 | 3.0 | 8.0 | 0.00 | 0.00 | 0.00 | 7 | 1012.2 |
| 20260503000114 | 85 | 103 | 3.0 | 8.0 | 0.00 | 0.00 | 0.00 | 7 | 1012.2 |
| 20260502235758 | 85 | 105 | 3.0 | 8.0 | 0.00 | 0.00 | 0.00 | 7 | 1012.3 |
| 20260502235438 | 86 | 101 | 2.0 | 8.0 | 0.00 | 0.00 | 0.00 | 6 | 1012.2 |
| 20260502235123 | 85 | 100 | 2.0 | 8.0 | 0.00 | 0.00 | 0.00 | 7 | 1012.2 |
| 20260502234802 | 85 | 86 | 2.0 | 5.0 | 0.00 | 0.00 | 0.00 | 8 | 1012.2 |
| 20260502234447 | 84 | 331 | 3.0 | 9.0 | 0.00 | 0.00 | 0.00 | 8 | 1012.2 |
| 20260502233527 | 84 | 107 | 3.0 | 9.0 | 0.00 | 0.00 | 0.00 | 7 | 1012.2 |
| 20260502233213 | 84 | 206 | 3.0 | 9.0 | 0.00 | 0.00 | 0.00 | 7 | 1012.3 |
| 20260502232557 | 85 | 186 | 2.0 | 9.0 | 0.00 | 0.00 | 0.00 | 7 | 1012.2 |
| 20260502232238 | 85 | 191 | 2.0 | 11.0 | 0.00 | 0.00 | 0.00 | 6 | 1012.3 |